User: anonymous   Login
Location: Camp Creek
(33.9000°N, 111.8167°W)
Time: 08:09:25
(UTC-07:00)
Language:

DELTA 2 R/B (1) - Orbit

View from above orbital plane
View from above orbital plane
View from above satellite
View from above satellite

Ground track
Ground track

The orbit data is extracted from the following two-line orbital elements,

1 27665U 03005C   15214.84541876 -.00000087  00000-0 -78842-6 0  9992
2 27665 039.5770 354.5893 0007492 147.6737 012.6104 14.28351927653058
Epoch (UTC): 02 August 2015 20:17:24
Eccentricity: 0.0007492
inclination: 39.5770°
perigee height: 792 km
apogee height: 802 km
right ascension of ascending node: 354.5893°
argument of perigee: 147.6737°
revolutions per day: 14.28351927
mean anomaly at epoch: 12.6104°
orbit number at epoch: 65305

The dashed part of the orbit path shows where the satellite is in the earth's shadow,  

DLR